When you browse on this site, cookies collect data to enhance your experience and personalize the content and advertising you see.
Visit our Privacy Policy to learn more. By continuing to use the site, you agree to this use of cookies and data.
  • In Hungary
  • List of Countries
  • For 7 days
  • Water Temperature
  • Satellite Maps
  • Weather Map
  • News
  • Weather Widgets
  • user-avatar
    Login

    Hourly Weather Velikaya Lepetiha

    Today, 18 November, Sunday

    Time Temperature Precipitation Wind Pressure Humidity
    00:00 -1°C° 0 mm 2 mps 767 mmHg 78%
    01:00 -1°C° 0 mm 2 mps 767 mmHg 80%
    02:00 -2°C° 0 mm 2 mps 767 mmHg 82%
    03:00 -2°C° 0 mm 2 mps 766 mmHg 81%
    04:00 -2°C° 0 mm 2 mps 766 mmHg 80%
    05:00 -2°C° 0 mm 2 mps 766 mmHg 79%
    06:00 +1°C° 0 mm 1 mps 765 mmHg 77%
    07:00 +1°C° 0 mm 1 mps 765 mmHg 75%
    08:00 +1°C° 0 mm 1 mps 765 mmHg 73%
    09:00 +2°C° 0 mm 1 mps 765 mmHg 70%
    10:00 +2°C° 0 mm 0 mps 764 mmHg 66%
    11:00 +3°C° 0 mm 0 mps 764 mmHg 63%
    12:00 +3°C° 0 mm 0 mps 764 mmHg 62%
    13:00 +3°C° 0 mm 0 mps 763 mmHg 61%
    14:00 +4°C° 0 mm 0 mps 763 mmHg 60%
    15:00 +3°C° 0 mm 0 mps 763 mmHg 63%
    16:00 +3°C° 0 mm 0 mps 763 mmHg 66%
    17:00 +3°C° 0 mm 1 mps 762 mmHg 68%
    18:00 +3°C° 0 mm 1 mps 762 mmHg 70%
    19:00 +3°C° 0 mm 1 mps 762 mmHg 71%
    20:00 +3°C° 0 mm 1 mps 762 mmHg 73%
    21:00 +2°C° 0 mm 1 mps 762 mmHg 73%
    22:00 +2°C° 0 mm 1 mps 762 mmHg 73%
    23:00 +2°C° 0 mm 1 mps 762 mmHg 74%

    Tomorrow, 19 November, Monday

    Time Temperature Precipitation Wind Pressure Humidity
    00:00 +1°C° 0 mm 2 mps 762 mmHg 73%
    01:00 +1°C° 0 mm 2 mps 761 mmHg 73%
    02:00 +1°C° 0 mm 2 mps 761 mmHg 73%
    03:00 0°C° 0 mm 3 mps 761 mmHg 74%
    04:00 0°C° 0 mm 3 mps 761 mmHg 76%
    05:00 0°C° 0 mm 3 mps 761 mmHg 78%
    06:00 0°C° 0 mm 4 mps 761 mmHg 80%
    07:00 0°C° 0 mm 4 mps 760 mmHg 83%
    08:00 0°C° 0 mm 5 mps 760 mmHg 86%
    09:00 +1°C° 0 mm 5 mps 760 mmHg 85%
    10:00 +1°C° 0 mm 5 mps 760 mmHg 84%
    11:00 +2°C° 0 mm 5 mps 760 mmHg 83%
    12:00 +2°C° 0.4 mm 6 mps 760 mmHg 81%
    13:00 +2°C° 0.4 mm 7 mps 759 mmHg 80%
    14:00 +2°C° 0.4 mm 7 mps 758 mmHg 78%
    15:00 +2°C° 1.3 mm 7 mps 758 mmHg 81%
    16:00 +2°C° 1.3 mm 7 mps 757 mmHg 83%
    17:00 +1°C° 1.3 mm 8 mps 757 mmHg 85%
    18:00 +1°C° 0.8 mm 8 mps 756 mmHg 86%
    19:00 +1°C° 0.8 mm 8 mps 756 mmHg 87%
    20:00 +1°C° 0.8 mm 9 mps 755 mmHg 88%
    21:00 +2°C° 0.9 mm 9 mps 754 mmHg 89%
    22:00 +2°C° 0.9 mm 9 mps 754 mmHg 90%
    23:00 +3°C° 0.9 mm 9 mps 753 mmHg 90%

    Day after tomorrow, 20 November, Tuesday

    Time Temperature Precipitation Wind Pressure Humidity
    00:00 +4°C° 0.3 mm 8 mps 753 mmHg 91%
    01:00 +5°C° 0.3 mm 8 mps 753 mmHg 92%
    02:00 +5°C° 0.3 mm 7 mps 753 mmHg 92%
    03:00 +5°C° 0.3 mm 7 mps 753 mmHg 93%
    04:00 +5°C° 0.3 mm 6 mps 753 mmHg 93%
    05:00 +5°C° 0.3 mm 6 mps 753 mmHg 93%
    06:00 +4°C° 0.2 mm 6 mps 754 mmHg 92%
    07:00 +4°C° 0.2 mm 6 mps 754 mmHg 91%
    08:00 +4°C° 0.2 mm 7 mps 755 mmHg 89%
    09:00 +3°C° 0.1 mm 7 mps 756 mmHg 87%
    10:00 +3°C° 0.1 mm 6 mps 756 mmHg 84%
    11:00 +3°C° 0.1 mm 6 mps 757 mmHg 82%
    12:00 +3°C° 0 mm 6 mps 757 mmHg 80%
    13:00 +3°C° 0 mm 6 mps 758 mmHg 79%
    14:00 +3°C° 0 mm 6 mps 758 mmHg 77%
    15:00 +2°C° 0 mm 5 mps 759 mmHg 78%
    16:00 +2°C° 0 mm 5 mps 759 mmHg 79%
    17:00 +1°C° 0 mm 5 mps 760 mmHg 81%
    18:00 +1°C° 0 mm 5 mps 760 mmHg 81%
    19:00 +1°C° 0 mm 4 mps 761 mmHg 81%
    20:00 +1°C° 0 mm 4 mps 761 mmHg 82%
    21:00 +1°C° 0 mm 4 mps 761 mmHg 82%
    22:00 +1°C° 0 mm 4 mps 761 mmHg 82%
    23:00 +1°C° 0 mm 4 mps 762 mmHg 82%

    21 November, Wednesday

    Time Temperature Precipitation Wind Pressure Humidity
    00:00 0°C° 0 mm 4 mps 762 mmHg 83%
    01:00 0°C° 0 mm 4 mps 762 mmHg 83%
    02:00 0°C° 0 mm 4 mps 762 mmHg 84%
    03:00 0°C° 0 mm 4 mps 762 mmHg 84%
    04:00 0°C° 0 mm 4 mps 762 mmHg 84%
    05:00 -1°C° 0 mm 4 mps 762 mmHg 85%
    06:00 -1°C° 0 mm 4 mps 762 mmHg 84%
    07:00 -1°C° 0 mm 4 mps 762 mmHg 83%
    08:00 -1°C° 0 mm 4 mps 762 mmHg 83%
    09:00 0°C° 0 mm 4 mps 762 mmHg 80%
    10:00 0°C° 0 mm 4 mps 762 mmHg 77%
    11:00 +1°C° 0 mm 4 mps 762 mmHg 74%
    12:00 +3°C° 0 mm 4 mps 761 mmHg 72%
    13:00 +3°C° 0 mm 4 mps 761 mmHg 70%
    14:00 +3°C° 0 mm 4 mps 761 mmHg 68%
    15:00 +3°C° 0 mm 4 mps 761 mmHg 69%
    16:00 +3°C° 0 mm 4 mps 761 mmHg 70%
    17:00 +1°C° 0 mm 4 mps 761 mmHg 72%
    18:00 +1°C° 0 mm 5 mps 761 mmHg 73%
    19:00 0°C° 0 mm 5 mps 761 mmHg 73%
    20:00 0°C° 0 mm 5 mps 761 mmHg 74%
    21:00 0°C° 0 mm 5 mps 761 mmHg 75%
    22:00 -1°C° 0 mm 5 mps 761 mmHg 77%
    23:00 -1°C° 0 mm 5 mps 761 mmHg 78%

    22 November, Thursday

    Time Temperature Precipitation Wind Pressure Humidity
    00:00 -2°C° 0 mm 5 mps 761 mmHg 79%
    01:00 -2°C° 0 mm 5 mps 761 mmHg 80%
    02:00 -2°C° 0 mm 5 mps 761 mmHg 82%
    03:00 -4°C° 0 mm 5 mps 761 mmHg 82%
    04:00 -4°C° 0 mm 5 mps 761 mmHg 83%
    05:00 -4°C° 0 mm 5 mps 761 mmHg 83%
    06:00 -4°C° 0 mm 5 mps 762 mmHg 81%
    07:00 -4°C° 0 mm 5 mps 762 mmHg 79%
    08:00 -4°C° 0 mm 5 mps 762 mmHg 77%
    09:00 -2°C° 0 mm 5 mps 762 mmHg 71%
    10:00 -1°C° 0 mm 5 mps 762 mmHg 64%
    11:00 0°C° 0 mm 5 mps 762 mmHg 58%
    12:00 0°C° 0 mm 5 mps 762 mmHg 57%
    13:00 +1°C° 0 mm 5 mps 762 mmHg 56%
    14:00 +1°C° 0 mm 5 mps 762 mmHg 55%
    15:00 0°C° 0 mm 5 mps 762 mmHg 60%
    16:00 -1°C° 0 mm 4 mps 763 mmHg 65%
    17:00 -2°C° 0 mm 4 mps 763 mmHg 70%
    18:00 -3°C° 0 mm 4 mps 763 mmHg 74%
    19:00 -3°C° 0 mm 4 mps 764 mmHg 77%
    20:00 -4°C° 0 mm 4 mps 764 mmHg 81%
    21:00 -4°C° 0 mm 4 mps 764 mmHg 82%
    22:00 -4°C° 0 mm 4 mps 764 mmHg 83%
    23:00 -4°C° 0 mm 4 mps 765 mmHg 84%

    23 November, Friday

    Time Temperature Precipitation Wind Pressure Humidity
    00:00 -4°C° 0 mm 4 mps 765 mmHg 83%
    01:00 -4°C° 0 mm 4 mps 765 mmHg 82%
    02:00 -4°C° 0 mm 4 mps 765 mmHg 82%
    03:00 -5°C° 0 mm 4 mps 765 mmHg 81%
    04:00 -5°C° 0 mm 3 mps 765 mmHg 81%
    05:00 -5°C° 0 mm 3 mps 766 mmHg 81%
    06:00 -5°C° 0 mm 3 mps 766 mmHg 80%
    07:00 -5°C° 0 mm 3 mps 766 mmHg 79%
    08:00 -4°C° 0 mm 3 mps 767 mmHg 77%
    09:00 -3°C° 0 mm 4 mps 767 mmHg 72%
    10:00 -2°C° 0 mm 4 mps 767 mmHg 66%
    11:00 -1°C° 0 mm 4 mps 767 mmHg 60%
    12:00 0°C° 0 mm 4 mps 767 mmHg 58%
    13:00 0°C° 0 mm 4 mps 767 mmHg 57%
    14:00 +1°C° 0 mm 4 mps 766 mmHg 56%
    15:00 +1°C° 0 mm 3 mps 767 mmHg 62%
    16:00 -1°C° 0 mm 3 mps 767 mmHg 67%
    17:00 -2°C° 0 mm 3 mps 767 mmHg 73%
    18:00 -2°C° 0 mm 3 mps 767 mmHg 76%
    19:00 -4°C° 0 mm 3 mps 767 mmHg 79%
    20:00 -4°C° 0 mm 3 mps 767 mmHg 81%
    21:00 -3°C° 0 mm 2 mps 767 mmHg 82%
    22:00 -3°C° 0 mm 2 mps 767 mmHg 83%
    23:00 -3°C° 0 mm 2 mps 767 mmHg 83%
    Show more